Location: Jackson Park
(37.2862°N, 79.9123°W)
Time: 19:45:53
(UTC+00:00)

Vanguard 2 Rocket - Pass Details

Date: 18 May 2026
Orbit: 553 x 3286 km, 32.9° (Epoch: 6 June)

Event Time Altitude Azimuth Distance (km) Brightness Sun altitude
Rises 20:57:40 0° 282° (WNW) 6,591 12.1 39.0°
Reaches altitude 10° 21:01:56 10° 277° (W) 5,821 12.2 38.2°
Maximum altitude 21:19:33 47° 212° (SSW) 3,955 11.0 34.7°
Drops below altitude 10° 21:36:40 10° 146° (SE) 5,633 10.7 31.3°
Sets 21:40:46 0° 140° (SE) 6,368 10.9 30.5°
